Date String (YYYY-MM-DD hh:mm:ss) UTC,Instrument flags,absolute air pressure of the measurement (hPa),sample flow rate (lpm),inlet stack bypass flow (lpm),air temperature of the measurement (°C),ambient temperature measured by the external sensor (°C),aerosol sample conditioner tube jacket temperature (°C),OPC LED temperature (°C),internal box temperature (°C),relative humidity of the measurement (%),span deviation,mass concentration of particles derived from Lorenz-Mie calculation of OPC scattering (μg/m³),mass concentration of particles derived from Lorenz-Mie calculation of OPC scattering (μg/m³),mass concentration of particles derived from Lorenz-Mie calculation of OPC scattering (μg/m³)
DateTimeUTC,F1_M11,P_M11,Q1_M11,Q2_M11,T1_M11,T2_M11,T3_M11,T4_M11,T5_M11,U1_M11,ZSPAN_M11,X0_M11,X2_M11,X1_M11
2023-11-28 03:00:00,SystemResetWarning,0833.4,5.00,000.00,021.2,020.4,000.0,029.6,022.5,10.5,0000.0,0009.67,0004.71,0004.06
2023-11-28 03:01:00,SystemResetWarning,0833.4,5.00,000.00,021.2,020.4,000.0,029.6,022.5,10.5,0000.0,0010.43,0004.72,0004.10
2023-11-28 03:02:00,SystemResetWarning,0833.3,5.00,000.00,021.3,020.4,000.0,029.6,022.5,10.5,0000.0,0010.24,0004.74,0004.13
2023-11-28 03:03:00,SystemResetWarning,0833.3,4.99,000.00,021.2,020.4,000.0,029.6,022.5,10.5,0000.0,0010.21,0004.76,0004.16
2023-11-28 03:04:00,SystemResetWarning,0833.3,4.99,000.00,021.2,020.4,000.0,029.6,022.5,10.5,0000.0,0011.11,0004.81,0004.21
2023-11-28 03:05:00,SystemResetWarning,0833.3,5.00,000.00,021.2,020.4,000.0,029.6,022.4,10.6,0000.0,0011.10,0004.86,0004.24
2023-11-28 03:06:00,SystemResetWarning,0833.3,5.00,000.00,021.2,020.4,000.0,029.6,022.5,10.6,0000.0,0011.05,0004.84,0004.25
2023-11-28 03:07:00,SystemResetWarning,0833.3,5.00,000.00,021.2,020.4,000.0,029.6,022.4,10.6,0000.0,0011.09,0004.85,0004.26
2023-11-28 03:08:00,SystemResetWarning,0833.2,5.00,000.00,021.2,020.4,000.0,029.6,022.4,10.6,0000.0,0011.12,0004.87,0004.26
2023-11-28 03:09:00,SystemResetWarning,0833.2,5.00,000.00,021.2,020.4,000.0,029.6,022.4,10.7,0000.0,0011.54,0004.88,0004.25
2023-11-28 03:10:00,SystemResetWarning,0833.2,5.02,000.00,021.2,020.4,000.0,029.6,022.4,10.7,0000.0,0011.87,0004.90,0004.24
2023-11-28 03:11:00,SystemResetWarning,0833.3,4.99,000.00,021.2,020.4,000.0,029.6,022.4,10.6,0000.0,0012.39,0004.91,0004.25
2023-11-28 03:12:00,SystemResetWarning,0833.2,4.99,000.00,021.2,020.3,000.0,029.6,022.5,10.6,0000.0,0011.71,0004.93,0004.26
2023-11-28 03:13:00,SystemResetWarning,0833.2,5.00,000.00,021.2,020.3,000.0,029.6,022.4,10.7,0000.0,0012.06,0004.96,0004.27
2023-11-28 03:14:00,SystemResetWarning,0833.3,5.00,000.00,021.2,020.3,000.0,029.6,022.4,10.8,0000.0,0012.23,0004.98,0004.27
2023-11-28 03:15:00,SystemResetWarning,0833.3,5.00,000.00,021.2,020.3,000.0,029.6,022.4,10.8,0000.0,0011.44,0004.99,0004.28
2023-11-28 03:16:00,SystemResetWarning,0833.3,5.01,000.00,021.2,020.3,000.0,029.6,022.4,10.6,0000.0,0011.13,0004.97,0004.29
2023-11-28 03:17:00,SystemResetWarning,0833.3,5.00,000.00,021.2,020.3,000.0,029.6,022.4,10.7,0000.0,0010.97,0004.95,0004.29
2023-11-28 03:18:00,SystemResetWarning,0833.3,5.00,000.00,021.2,020.3,000.0,029.6,022.4,10.7,0000.0,0010.76,0004.91,0004.28
2023-11-28 03:19:00,SystemResetWarning,0833.3,5.01,000.00,021.2,020.3,000.0,029.6,022.4,10.7,0000.0,0010.56,0004.94,0004.32
2023-11-28 03:20:00,SystemResetWarning,0833.3,5.00,000.00,021.2,020.3,000.0,029.6,022.4,10.7,0000.0,0010.26,0004.99,0004.37
2023-11-28 03:21:00,SystemResetWarning,0833.3,5.00,000.00,021.2,020.3,000.0,029.5,022.4,10.7,0000.0,0010.23,0005.01,0004.42
2023-11-28 03:22:00,SystemResetWarning,0833.3,5.00,000.00,021.2,020.3,000.0,029.5,022.4,10.6,0000.0,0009.86,0005.00,0004.41
2023-11-28 03:23:00,SystemResetWarning,0833.3,4.99,000.00,021.2,020.3,000.0,029.5,022.4,10.6,0000.0,0009.90,0004.98,0004.41
2023-11-28 03:24:00,SystemResetWarning,0833.4,5.00,000.00,021.2,020.3,000.0,029.5,022.3,10.6,0000.0,0009.56,0004.97,0004.42
2023-11-28 03:25:00,SystemResetWarning,0833.4,5.00,000.00,021.1,020.3,000.0,029.5,022.3,10.6,0000.0,0009.19,0004.95,0004.42
2023-11-28 03:26:00,SystemResetWarning,0833.3,5.00,000.00,021.1,020.3,000.0,029.5,022.4,10.6,0000.0,0009.05,0004.93,0004.42
2023-11-28 03:27:00,SystemResetWarning,0833.3,5.01,000.00,021.1,020.3,000.0,029.5,022.3,10.7,0000.0,0009.04,0004.90,0004.39
2023-11-28 03:28:00,SystemResetWarning,0833.3,5.01,000.00,021.1,020.2,000.0,029.5,022.3,10.7,0000.0,0009.01,0004.91,0004.40
2023-11-28 03:29:00,SystemResetWarning,0833.3,5.00,000.00,021.1,020.2,000.0,029.5,022.3,10.7,0000.0,0009.09,0004.95,0004.40
2023-11-28 03:30:00,SystemResetWarning,0833.3,4.99,000.00,021.1,020.2,000.0,029.5,022.3,10.7,0000.0,0009.46,0004.93,0004.36
2023-11-28 03:31:00,SystemResetWarning,0833.3,5.00,000.00,021.1,020.2,000.0,029.5,022.3,10.8,0000.0,0009.73,0004.88,0004.32
2023-11-28 03:32:00,SystemResetWarning,0833.3,5.00,000.00,021.1,020.3,000.0,029.5,022.3,10.8,0000.0,0009.64,0004.84,0004.28
2023-11-28 03:33:00,SystemResetWarning,0833.4,4.99,000.00,021.1,020.3,000.0,029.5,022.3,10.8,0000.0,0009.47,0004.85,0004.28
2023-11-28 03:34:00,SystemResetWarning,0833.4,5.00,000.00,021.1,020.3,000.0,029.5,022.3,10.8,0000.0,0009.82,0004.84,0004.27
2023-11-28 03:35:00,SystemResetWarning,0833.4,5.00,000.00,021.1,020.3,000.0,029.5,022.3,10.8,0000.0,0010.89,0004.81,0004.26
2023-11-28 03:36:00,SystemResetWarning,0833.3,5.00,000.00,021.1,020.3,000.0,029.5,022.3,10.9,0000.0,0010.88,0004.84,0004.28
2023-11-28 03:37:00,SystemResetWarning,0833.2,5.01,000.00,021.1,020.3,000.0,029.5,022.3,10.9,0000.0,0010.94,0004.85,0004.28
2023-11-28 03:38:00,SystemResetWarning,0833.3,5.00,000.00,021.1,020.3,000.0,029.5,022.3,10.9,0000.0,0011.02,0004.87,0004.30
2023-11-28 03:39:00,SystemResetWarning,0833.2,4.99,000.00,021.1,020.2,000.0,029.5,022.3,10.9,0000.0,0011.08,0004.93,0004.34
2023-11-28 03:40:00,SystemResetWarning,0833.2,5.00,000.00,021.1,020.2,000.0,029.5,022.3,10.9,0000.0,0011.11,0004.96,0004.38
2023-11-28 03:41:00,SystemResetWarning,0833.2,5.00,000.00,021.1,020.2,000.0,029.5,022.4,10.9,0000.0,0010.92,0004.96,0004.40
2023-11-28 03:42:00,SystemResetWarning,0833.3,5.00,000.00,021.1,020.2,000.0,029.5,022.3,10.9,0000.0,0011.19,0004.99,0004.44
2023-11-28 03:43:00,SystemResetWarning,0833.2,5.00,000.00,021.1,020.2,000.0,029.5,022.3,10.9,0000.0,0011.37,0005.03,0004.48
2023-11-28 03:44:00,SystemResetWarning,0833.2,5.00,000.00,021.1,020.3,000.0,029.4,022.3,10.9,0000.0,0012.02,0005.11,0004.51
2023-11-28 03:45:00,SystemResetWarning,0833.2,5.01,000.00,021.1,020.3,000.0,029.4,022.3,10.9,0000.0,0012.11,0005.18,0004.55
2023-11-28 03:46:00,SystemResetWarning,0833.2,5.01,000.00,021.1,020.3,000.0,029.4,022.3,10.9,0000.0,0010.65,0005.23,0004.58
2023-11-28 03:47:00,SystemResetWarning,0833.2,5.00,000.00,021.1,020.3,000.0,029.4,022.3,10.9,0000.0,0010.77,0005.24,0004.59
2023-11-28 03:48:00,SystemResetWarning,0833.2,5.00,000.00,021.1,020.2,000.0,029.4,022.3,10.8,0000.0,0011.06,0005.24,0004.59
2023-11-28 03:49:00,SystemResetWarning,0833.2,4.99,000.00,021.1,020.3,000.0,029.4,022.3,10.8,0000.0,0011.05,0005.24,0004.61
2023-11-28 03:50:00,SystemResetWarning,0833.2,4.99,000.00,021.1,020.3,000.0,029.4,022.3,10.8,0000.0,0011.29,0005.23,0004.60
2023-11-28 03:51:00,SystemResetWarning,0833.2,4.99,000.00,021.1,020.3,000.0,029.4,022.3,10.8,0000.0,0011.37,0005.21,0004.60
2023-11-28 03:52:00,SystemResetWarning,0833.2,4.99,000.00,021.1,020.3,000.0,029.4,022.3,10.8,0000.0,0011.21,0005.17,0004.60
2023-11-28 03:53:00,SystemResetWarning,0833.2,5.00,000.00,021.1,020.3,000.0,029.4,022.3,10.8,0000.0,0010.58,0005.19,0004.59
2023-11-28 03:54:00,SystemResetWarning,0833.2,5.01,000.00,021.1,020.3,000.0,029.4,022.3,10.8,0000.0,0010.14,0005.16,0004.56
2023-11-28 03:55:00,SystemResetWarning,0833.2,5.00,000.00,021.1,020.3,000.0,029.4,022.3,10.8,0000.0,0009.47,0005.06,0004.52
2023-11-28 03:56:00,SystemResetWarning,0833.2,5.00,000.00,021.1,020.3,000.0,029.4,022.3,10.8,0000.0,0009.34,0004.98,0004.48
2023-11-28 03:57:00,SystemResetWarning,0833.2,5.00,000.00,021.1,020.3,000.0,029.4,022.3,10.8,0000.0,0009.84,0004.96,0004.45
2023-11-28 03:58:00,SystemResetWarning,0833.2,4.99,000.00,021.1,020.3,000.0,029.4,022.3,10.8,0000.0,0010.23,0004.98,0004.43
2023-11-28 03:59:00,SystemResetWarning,0833.2,4.99,000.00,021.1,020.3,000.0,029.4,022.3,10.8,0000.0,0010.11,0005.03,0004.43
